• Em Portugal
  • Lista de países
  • Para 7 dias
  • Temperatura da água
  • Mapas de satélite
  • Mapa do tempo
  • Widgets de tempo
  • user-avatar
    Iniciar Sessão

    Previsão horária em Gaborone

    Hoje, 20 Janeiro, Sábado

    Tempo Temperatura Precipitação Vento Pressão Humidade
    00:00 +27°C° 0 mm 1 m/s 675 mmHg 16%
    01:00 +26°C° 0 mm 2 m/s 675 mmHg 17%
    02:00 +25°C° 0 mm 3 m/s 676 mmHg 20%
    03:00 +24°C° 0 mm 3 m/s 676 mmHg 23%
    04:00 +24°C° 0 mm 3 m/s 676 mmHg 27%
    05:00 +22°C° 0 mm 3 m/s 676 mmHg 31%
    06:00 +24°C° 0 mm 3 m/s 676 mmHg 32%
    07:00 +25°C° 0 mm 3 m/s 677 mmHg 34%
    08:00 +26°C° 0 mm 4 m/s 677 mmHg 35%
    09:00 +28°C° 0 mm 3 m/s 677 mmHg 30%
    10:00 +30°C° 0 mm 3 m/s 677 mmHg 26%
    11:00 +33°C° 0 mm 3 m/s 677 mmHg 21%
    12:00 +35°C° 0 mm 3 m/s 677 mmHg 19%
    13:00 +37°C° 0 mm 2 m/s 677 mmHg 17%
    14:00 +37°C° 0 mm 2 m/s 676 mmHg 16%
    15:00 +36°C° 0 mm 1 m/s 676 mmHg 15%
    16:00 +37°C° 0 mm 1 m/s 676 mmHg 15%
    17:00 +37°C° 0 mm 1 m/s 675 mmHg 14%
    18:00 +35°C° 0 mm 1 m/s 675 mmHg 16%
    19:00 +33°C° 0 mm 1 m/s 675 mmHg 18%
    20:00 +31°C° 0 mm 1 m/s 674 mmHg 20%
    21:00 +31°C° 0 mm 1 m/s 675 mmHg 20%
    22:00 +30°C° 0 mm 1 m/s 675 mmHg 21%
    23:00 +29°C° 0 mm 1 m/s 675 mmHg 22%

    Amanhã, 21 Janeiro, Domingo

    Tempo Temperatura Precipitação Vento Pressão Humidade
    00:00 +28°C° 0 mm 2 m/s 675 mmHg 23%
    01:00 +28°C° 0 mm 2 m/s 675 mmHg 25%
    02:00 +27°C° 0 mm 2 m/s 675 mmHg 26%
    03:00 +26°C° 0 mm 3 m/s 675 mmHg 28%
    04:00 +25°C° 0 mm 3 m/s 675 mmHg 31%
    05:00 +25°C° 0 mm 3 m/s 675 mmHg 33%
    06:00 +26°C° 0 mm 4 m/s 676 mmHg 33%
    07:00 +27°C° 0 mm 5 m/s 676 mmHg 32%
    08:00 +28°C° 0 mm 6 m/s 677 mmHg 32%
    09:00 +30°C° 0 mm 6 m/s 677 mmHg 28%
    10:00 +34°C° 0 mm 5 m/s 678 mmHg 24%
    11:00 +36°C° 0 mm 5 m/s 678 mmHg 21%
    12:00 +37°C° 0 mm 5 m/s 678 mmHg 18%
    13:00 +38°C° 0 mm 4 m/s 677 mmHg 16%
    14:00 +40°C° 0 mm 4 m/s 677 mmHg 14%
    15:00 +40°C° 0 mm 4 m/s 676 mmHg 14%
    16:00 +40°C° 0 mm 4 m/s 676 mmHg 13%
    17:00 +40°C° 0 mm 4 m/s 675 mmHg 13%
    18:00 +37°C° 0 mm 3 m/s 675 mmHg 15%
    19:00 +36°C° 0 mm 3 m/s 675 mmHg 17%
    20:00 +34°C° 0 mm 3 m/s 675 mmHg 18%
    21:00 +33°C° 0 mm 3 m/s 675 mmHg 21%
    22:00 +32°C° 0 mm 4 m/s 675 mmHg 23%
    23:00 +30°C° 0 mm 4 m/s 675 mmHg 25%

    Depois de amanhã, 22 Janeiro, Segunda-feira

    Tempo Temperatura Precipitação Vento Pressão Humidade
    00:00 +29°C° 0 mm 4 m/s 675 mmHg 28%
    01:00 +28°C° 0 mm 5 m/s 675 mmHg 30%
    02:00 +27°C° 0 mm 5 m/s 674 mmHg 33%
    03:00 +26°C° 0 mm 5 m/s 675 mmHg 35%
    04:00 +26°C° 0 mm 5 m/s 675 mmHg 38%
    05:00 +25°C° 0 mm 5 m/s 675 mmHg 40%
    06:00 +26°C° 0 mm 5 m/s 676 mmHg 39%
    07:00 +26°C° 0 mm 6 m/s 676 mmHg 38%
    08:00 +27°C° 0 mm 7 m/s 677 mmHg 37%
    09:00 +29°C° 0 mm 6 m/s 677 mmHg 33%
    10:00 +32°C° 0 mm 6 m/s 677 mmHg 29%
    11:00 +34°C° 0 mm 6 m/s 678 mmHg 25%
    12:00 +36°C° 0 mm 5 m/s 677 mmHg 22%
    13:00 +37°C° 0 mm 5 m/s 677 mmHg 20%
    14:00 +38°C° 0 mm 4 m/s 676 mmHg 17%
    15:00 +38°C° 0 mm 4 m/s 675 mmHg 18%
    16:00 +37°C° 0 mm 3 m/s 675 mmHg 18%
    17:00 +37°C° 0 mm 3 m/s 674 mmHg 19%
    18:00 +35°C° 0 mm 2 m/s 674 mmHg 21%
    19:00 +34°C° 0 mm 2 m/s 674 mmHg 24%
    20:00 +31°C° 0 mm 1 m/s 674 mmHg 26%
    21:00 +31°C° 0 mm 1 m/s 674 mmHg 28%
    22:00 +30°C° 0 mm 1 m/s 674 mmHg 30%
    23:00 +29°C° 0 mm 1 m/s 674 mmHg 32%

    23 Janeiro, Terça-feira

    Tempo Temperatura Precipitação Vento Pressão Humidade
    00:00 +28°C° 0 mm 1 m/s 674 mmHg 33%
    01:00 +28°C° 0 mm 1 m/s 674 mmHg 35%
    02:00 +28°C° 0 mm 2 m/s 674 mmHg 36%
    03:00 +27°C° 0 mm 2 m/s 674 mmHg 38%
    04:00 +27°C° 0 mm 3 m/s 674 mmHg 40%
    05:00 +26°C° 0 mm 3 m/s 674 mmHg 42%
    06:00 +27°C° 0 mm 4 m/s 675 mmHg 41%
    07:00 +27°C° 0 mm 5 m/s 675 mmHg 41%
    08:00 +28°C° 0 mm 6 m/s 676 mmHg 40%
    09:00 +29°C° 0 mm 5 m/s 676 mmHg 37%
    10:00 +30°C° 0 mm 5 m/s 676 mmHg 35%
    11:00 +32°C° 0 mm 5 m/s 676 mmHg 33%
    12:00 +33°C° 0 mm 4 m/s 675 mmHg 32%
    13:00 +34°C° 0 mm 4 m/s 675 mmHg 30%
    14:00 +35°C° 0 mm 3 m/s 674 mmHg 29%
    15:00 +35°C° 0 mm 3 m/s 674 mmHg 29%
    16:00 +35°C° 0 mm 2 m/s 673 mmHg 28%
    17:00 +35°C° 0 mm 2 m/s 673 mmHg 28%
    18:00 +32°C° 0,1 mm 1 m/s 673 mmHg 31%
    19:00 +31°C° 0,1 mm 1 m/s 673 mmHg 34%
    20:00 +29°C° 0,1 mm 1 m/s 673 mmHg 38%
    21:00 +29°C° 0,1 mm 1 m/s 673 mmHg 41%
    22:00 +28°C° 0,1 mm 1 m/s 674 mmHg 45%
    23:00 +27°C° 0,1 mm 2 m/s 674 mmHg 49%

    24 Janeiro, Quarta-feira

    Tempo Temperatura Precipitação Vento Pressão Humidade
    00:00 +26°C° 0,3 mm 2 m/s 674 mmHg 54%
    01:00 +26°C° 0,3 mm 2 m/s 673 mmHg 59%
    02:00 +25°C° 0,3 mm 2 m/s 673 mmHg 64%
    03:00 +25°C° 0,2 mm 2 m/s 673 mmHg 65%
    04:00 +25°C° 0,2 mm 2 m/s 674 mmHg 67%
    05:00 +24°C° 0,2 mm 2 m/s 674 mmHg 69%
    06:00 +25°C° 0,1 mm 2 m/s 674 mmHg 65%
    07:00 +26°C° 0,1 mm 3 m/s 675 mmHg 62%
    08:00 +26°C° 0,1 mm 3 m/s 676 mmHg 59%
    09:00 +27°C° 0,4 mm 3 m/s 676 mmHg 54%
    10:00 +28°C° 0,4 mm 3 m/s 676 mmHg 49%
    11:00 +29°C° 0,4 mm 4 m/s 676 mmHg 45%
    12:00 +30°C° 0,1 mm 4 m/s 676 mmHg 42%
    13:00 +32°C° 0,1 mm 4 m/s 676 mmHg 39%
    14:00 +33°C° 0,1 mm 4 m/s 675 mmHg 36%
    15:00 +33°C° 0 mm 3 m/s 675 mmHg 34%
    16:00 +33°C° 0 mm 3 m/s 674 mmHg 33%
    17:00 +34°C° 0 mm 2 m/s 674 mmHg 31%
    18:00 +31°C° 0 mm 2 m/s 674 mmHg 35%
    19:00 +30°C° 0 mm 2 m/s 674 mmHg 38%
    20:00 +28°C° 0 mm 2 m/s 674 mmHg 41%
    21:00 +27°C° 0,2 mm 1 m/s 675 mmHg 45%
    22:00 +26°C° 0,2 mm 1 m/s 675 mmHg 49%
    23:00 +26°C° 0,2 mm 1 m/s 675 mmHg 52%

    25 Janeiro, Quinta-feira

    Tempo Temperatura Precipitação Vento Pressão Humidade
    00:00 +25°C° 0 mm 1 m/s 674 mmHg 53%
    01:00 +25°C° 0 mm 1 m/s 674 mmHg 55%
    02:00 +23°C° 0 mm 0 m/s 674 mmHg 56%
    03:00 +25°C° 0 mm 1 m/s 674 mmHg 56%
    04:00 +25°C° 0 mm 1 m/s 674 mmHg 56%
    05:00 +25°C° 0 mm 1 m/s 674 mmHg 57%
    06:00 +25°C° 0,1 mm 1 m/s 675 mmHg 55%
    07:00 +26°C° 0,1 mm 1 m/s 676 mmHg 54%
    08:00 +27°C° 0,1 mm 1 m/s 676 mmHg 52%
    09:00 +28°C° 0 mm 2 m/s 676 mmHg 47%
    10:00 +30°C° 0 mm 3 m/s 676 mmHg 42%
    11:00 +33°C° 0 mm 4 m/s 677 mmHg 37%
    12:00 +34°C° 0 mm 4 m/s 676 mmHg 34%
    13:00 +35°C° 0 mm 3 m/s 676 mmHg 31%
    14:00 +36°C° 0 mm 3 m/s 676 mmHg 28%
    15:00 +36°C° 0 mm 3 m/s 675 mmHg 28%
    16:00 +36°C° 0 mm 3 m/s 675 mmHg 27%
    17:00 +36°C° 0 mm 3 m/s 675 mmHg 27%
    18:00 +34°C° 0 mm 3 m/s 675 mmHg 31%
    19:00 +32°C° 0 mm 2 m/s 675 mmHg 35%
    20:00 +30°C° 0 mm 2 m/s 675 mmHg 38%
    21:00 +29°C° 0 mm 2 m/s 675 mmHg 41%
    22:00 +28°C° 0 mm 2 m/s 675 mmHg 43%
    23:00 +27°C° 0 mm 2 m/s 675 mmHg 45%
    Mostrar mais